User: anonymous   Login
Location: Boca do Mato
(22.9085°S, 43.2930°W)
Time: 08:54:54
(UTC+00:00)
Language:

ADEOS Rocket - Orbit

View from above orbital plane
View from above orbital plane
View from above satellite
View from above satellite

Ground track
Ground track

The orbit data is extracted from the following two-line orbital elements,

1 24279U 96046C   20265.51592358  .00000026  00000-0  74132-4 0  9991
2 24279  98.7000  74.7106 0300754 127.9556 302.0842 13.47158227184786
Epoch (UTC): 21 September 2020 12:22:55
Eccentricity: 0.0300754
inclination: 98.7000°
perigee height: 858 km
apogee height: 1307 km
right ascension of ascending node: 74.7106°
argument of perigee: 127.9556°
revolutions per day: 13.47158227
mean anomaly at epoch: 302.0842°
orbit number at epoch: 18478

The dashed part of the orbit path shows where the satellite is in the earth's shadow,  

DLR